EZY48JH LSGG-EGPH

Flight info

Callsign EZY48JH
Flight time 1h 53m
Altitude 36000
Route DIPIR1A/22 DIPIR T37 IBABA DCT TUTAX DCT OBURO DCT OKRIX DCT CLM DCT KOPOR DCT VESAN DCT RATUK DCT SOVAT L613 LEHOC DCT INPIP INPIP1E
Aircraft A319/M-SDE3FGHIRWY/LB1

Departure

Time 2026-05-05 19:27
Airport Geneva International Airport (LSGG)

Arrival

Time 2026-05-05 21:20
Airport Edinburgh Airport (EGPH)
Time Latitude Longitude Altitude Speed Heading
2026-05-05 18:57 46.23525 6.10960 1407 ft 0 kts 135°
2026-05-05 19:19 46.23524 6.10960 1393 ft 1 kts 135°
2026-05-05 19:19 46.23509 6.10980 1401 ft 3 kts 137°
2026-05-05 19:19 46.23499 6.10994 1398 ft 1 kts 138°
2026-05-05 19:19 46.23491 6.11005 1397 ft 2 kts 131°
2026-05-05 19:20 46.23488 6.11015 1396 ft 0 kts 115°
2026-05-05 19:20 46.23491 6.11036 1395 ft 8 kts 75°
2026-05-05 19:20 46.23545 6.11124 1396 ft 13 kts 45°
2026-05-05 19:20 46.23616 6.11143 1399 ft 12 kts 320°
2026-05-05 19:21 46.23686 6.11075 1387 ft 14 kts
2026-05-05 19:21 46.23773 6.11182 1380 ft 20 kts 45°
2026-05-05 19:21 46.23872 6.11328 1377 ft 21 kts 45°
2026-05-05 19:21 46.23979 6.11484 1372 ft 23 kts 45°
2026-05-05 19:22 46.24094 6.11655 1368 ft 25 kts 46°
2026-05-05 19:22 46.24218 6.11834 1363 ft 27 kts 45°
2026-05-05 19:22 46.24346 6.12023 1365 ft 25 kts 45°
2026-05-05 19:22 46.24460 6.12190 1371 ft 22 kts 45°
2026-05-05 19:23 46.24564 6.12344 1371 ft 22 kts 45°
2026-05-05 19:23 46.24675 6.12506 1365 ft 24 kts 45°
2026-05-05 19:23 46.24803 6.12672 1362 ft 24 kts 21°
2026-05-05 19:23 46.24883 6.12742 1365 ft 10 kts 58°
2026-05-05 19:24 46.24915 6.12823 1366 ft 9 kts 61°
2026-05-05 19:24 46.24965 6.12854 1367 ft 8 kts 352°
2026-05-05 19:24 46.24991 6.12833 1367 ft 0 kts 317°
2026-05-05 19:24 46.24992 6.12833 1367 ft 0 kts 317°
2026-05-05 19:25 46.24999 6.12762 1369 ft 20 kts 263°
2026-05-05 19:25 46.25001 6.12649 1372 ft 6 kts 228°
2026-05-05 19:25 46.24999 6.12646 1372 ft 0 kts 227°
2026-05-05 19:26 46.24993 6.12638 1372 ft 9 kts 227°
2026-05-05 19:27 46.24767 6.12307 1372 ft 82 kts 225°
2026-05-05 19:27 46.24220 6.11507 1375 ft 140 kts 225°
2026-05-05 19:27 46.23438 6.10366 1622 ft 163 kts 224°
2026-05-05 19:27 46.22676 6.09223 2285 ft 160 kts 225°
2026-05-05 19:28 46.21886 6.08057 2807 ft 170 kts 224°
2026-05-05 19:28 46.20990 6.06772 3170 ft 188 kts 224°
2026-05-05 19:28 46.20043 6.05365 3581 ft 205 kts 225°
2026-05-05 19:28 46.18993 6.03807 3953 ft 229 kts 225°
2026-05-05 19:29 46.17825 6.02101 4576 ft 244 kts 225°
2026-05-05 19:29 46.16635 6.00372 5462 ft 248 kts 225°
2026-05-05 19:29 46.15419 5.98590 6417 ft 251 kts 225°
2026-05-05 19:29 46.14217 5.96748 7268 ft 256 kts 231°
2026-05-05 19:30 46.13462 5.94391 8022 ft 266 kts 257°
2026-05-05 19:30 46.13492 5.91702 8863 ft 275 kts 281°
2026-05-05 19:30 46.14325 5.89190 9727 ft 286 kts 306°
2026-05-05 19:30 46.15910 5.87401 10520 ft 298 kts 332°
2026-05-05 19:31 46.17936 5.86305 10820 ft 323 kts 338°
2026-05-05 19:31 46.20126 5.85264 11311 ft 337 kts 340°
2026-05-05 19:31 46.22384 5.84236 12035 ft 343 kts 340°
2026-05-05 19:31 46.24675 5.83198 12772 ft 347 kts 340°
2026-05-05 19:32 46.26905 5.81864 13456 ft 348 kts 327°
2026-05-05 19:32 46.28996 5.80063 14131 ft 351 kts 326°
2026-05-05 19:32 46.31101 5.78244 14782 ft 355 kts 326°
2026-05-05 19:32 46.33232 5.76403 15420 ft 358 kts 326°
2026-05-05 19:33 46.35377 5.74545 16038 ft 361 kts 326°
2026-05-05 19:33 46.37539 5.72666 16689 ft 365 kts 326°
2026-05-05 19:33 46.39728 5.70762 17355 ft 368 kts 326°
2026-05-05 19:33 46.41934 5.68841 18012 ft 372 kts 326°
2026-05-05 19:34 46.44162 5.66899 18607 ft 375 kts 326°
2026-05-05 19:34 46.46401 5.64947 19182 ft 378 kts 326°
2026-05-05 19:34 46.48668 5.62965 19730 ft 382 kts 326°
2026-05-05 19:35 46.53240 5.58964 20801 ft 390 kts 326°
2026-05-05 19:35 46.55579 5.56919 21334 ft 394 kts 326°
2026-05-05 19:35 46.57941 5.54858 21875 ft 398 kts 326°
2026-05-05 19:35 46.60331 5.52771 22410 ft 402 kts 325°
2026-05-05 19:36 46.62744 5.50660 22925 ft 406 kts 325°
2026-05-05 19:36 46.65180 5.48524 23455 ft 410 kts 325°
2026-05-05 19:36 46.67635 5.46367 23875 ft 414 kts 325°
2026-05-05 19:36 46.70086 5.44142 24304 ft 416 kts 321°
2026-05-05 19:37 46.72461 5.41714 24732 ft 418 kts 320°
2026-05-05 19:37 46.74816 5.39208 25155 ft 420 kts 319°
2026-05-05 19:37 46.77167 5.36644 25573 ft 423 kts 319°
2026-05-05 19:37 46.79521 5.34049 25992 ft 426 kts 318°
2026-05-05 19:38 46.81895 5.31436 26395 ft 429 kts 319°
2026-05-05 19:38 46.84291 5.28818 26837 ft 431 kts 319°
2026-05-05 19:38 46.86708 5.26193 27299 ft 433 kts 320°
2026-05-05 19:38 46.89101 5.23601 27720 ft 435 kts 320°
2026-05-05 19:39 46.91534 5.20965 28138 ft 437 kts 320°
2026-05-05 19:39 46.93987 5.18308 28519 ft 440 kts 320°
2026-05-05 19:39 46.96451 5.15637 28914 ft 442 kts 320°
2026-05-05 19:39 46.98931 5.12945 29303 ft 445 kts 320°
2026-05-05 19:40 47.01423 5.10237 29674 ft 447 kts 320°
2026-05-05 19:40 47.03926 5.07506 30027 ft 450 kts 320°
2026-05-05 19:40 47.06441 5.04755 30334 ft 452 kts 320°
2026-05-05 19:40 47.08963 5.01995 30643 ft 454 kts 320°
2026-05-05 19:41 47.11503 4.99214 30934 ft 456 kts 320°
2026-05-05 19:41 47.14050 4.96422 31225 ft 458 kts 320°
2026-05-05 19:41 47.16602 4.93623 31571 ft 458 kts 320°
2026-05-05 19:41 47.19150 4.90823 32004 ft 457 kts 320°
2026-05-05 19:42 47.21695 4.88023 32388 ft 456 kts 320°
2026-05-05 19:42 47.24238 4.85224 32770 ft 456 kts 320°
2026-05-05 19:42 47.26780 4.82424 33140 ft 456 kts 320°
2026-05-05 19:42 47.29317 4.79624 33503 ft 456 kts 321°
2026-05-05 19:43 47.31860 4.76814 33846 ft 457 kts 321°
2026-05-05 19:43 47.34401 4.74003 34153 ft 457 kts 321°
2026-05-05 19:43 47.36943 4.71191 34461 ft 456 kts 321°
2026-05-05 19:43 47.39443 4.68418 34753 ft 456 kts 320°
2026-05-05 19:44 47.41975 4.65601 35052 ft 455 kts 320°
2026-05-05 19:44 47.44502 4.62783 35338 ft 455 kts 320°
2026-05-05 19:44 47.47022 4.59971 35618 ft 454 kts 320°
2026-05-05 19:44 47.49546 4.57151 35823 ft 454 kts 321°
2026-05-05 19:45 47.52054 4.54350 35862 ft 450 kts 321°
2026-05-05 19:45 47.57020 4.48802 35854 ft 446 kts 321°
2026-05-05 19:46 47.61971 4.43256 35857 ft 446 kts 321°
2026-05-05 19:46 47.66918 4.37698 35852 ft 446 kts 321°
2026-05-05 19:47 47.71855 4.32127 35849 ft 446 kts 320°
2026-05-05 19:47 47.76797 4.26539 35848 ft 446 kts 321°
2026-05-05 19:48 47.81729 4.20944 35856 ft 446 kts 321°
2026-05-05 19:48 47.86659 4.15344 35854 ft 446 kts 321°
2026-05-05 19:49 47.91562 4.09774 35848 ft 446 kts 321°
2026-05-05 19:49 47.96488 4.04155 35848 ft 446 kts 321°
2026-05-05 19:50 48.01409 3.98520 35837 ft 446 kts 321°
2026-05-05 19:50 48.06338 3.92876 35833 ft 446 kts 321°
2026-05-05 19:51 48.11272 3.87216 35830 ft 446 kts 321°
2026-05-05 19:51 48.16190 3.81546 35824 ft 446 kts 321°
2026-05-05 19:52 48.21106 3.75858 35828 ft 446 kts 321°
2026-05-05 19:52 48.26027 3.70168 35837 ft 446 kts 321°
2026-05-05 19:53 48.30943 3.64469 35836 ft 446 kts 321°
2026-05-05 19:53 48.35816 3.58794 35830 ft 446 kts 321°
2026-05-05 19:54 48.40723 3.53069 35829 ft 446 kts 321°
2026-05-05 19:54 48.45620 3.47342 35825 ft 446 kts 321°
2026-05-05 19:55 48.50514 3.41599 35836 ft 446 kts 321°
2026-05-05 19:55 48.55404 3.35840 35833 ft 445 kts 321°
2026-05-05 19:56 48.60289 3.30084 35832 ft 445 kts 321°
2026-05-05 19:56 48.65176 3.24322 35826 ft 445 kts 321°
2026-05-05 19:57 48.70056 3.18546 35823 ft 445 kts 321°
2026-05-05 19:57 48.74939 3.12753 35828 ft 445 kts 321°
2026-05-05 19:58 48.79775 3.06993 35829 ft 445 kts 321°
2026-05-05 19:58 48.84680 3.01258 35834 ft 445 kts 327°
2026-05-05 19:59 48.90038 2.96536 35835 ft 445 kts 330°
2026-05-05 19:59 48.95411 2.91841 35831 ft 445 kts 330°
2026-05-05 20:00 49.00777 2.87126 35825 ft 446 kts 330°
2026-05-05 20:00 49.06149 2.82399 35827 ft 446 kts 330°
2026-05-05 20:01 49.11528 2.77671 35836 ft 446 kts 330°
2026-05-05 20:01 49.16912 2.72926 35836 ft 446 kts 330°
2026-05-05 20:02 49.22287 2.68160 35836 ft 447 kts 330°
2026-05-05 20:02 49.27661 2.63383 35852 ft 447 kts 330°
2026-05-05 20:03 49.33035 2.58596 35857 ft 447 kts 330°
2026-05-05 20:03 49.38386 2.53827 35862 ft 447 kts 330°
2026-05-05 20:04 49.43765 2.49014 35873 ft 448 kts 330°
2026-05-05 20:04 49.49144 2.44186 35873 ft 447 kts 330°
2026-05-05 20:05 49.54881 2.40562 35866 ft 447 kts 344°
2026-05-05 20:05 49.60846 2.37882 35864 ft 447 kts 344°
2026-05-05 20:06 49.66822 2.35177 35865 ft 447 kts 344°
2026-05-05 20:06 49.71779 2.32914 35880 ft 447 kts 344°
2026-05-05 20:07 49.77745 2.30175 35880 ft 447 kts 344°
2026-05-05 20:07 49.83715 2.27436 35878 ft 447 kts 344°
2026-05-05 20:08 49.89690 2.24694 35888 ft 447 kts 343°
2026-05-05 20:08 49.95652 2.21951 35887 ft 447 kts 343°
2026-05-05 20:09 50.01606 2.19208 35887 ft 446 kts 343°
2026-05-05 20:09 50.07562 2.16446 35896 ft 446 kts 343°
2026-05-05 20:10 50.13515 2.13693 35896 ft 446 kts 343°
2026-05-05 20:10 50.19468 2.10930 35888 ft 446 kts 343°
2026-05-05 20:11 50.25420 2.08153 35897 ft 447 kts 343°
2026-05-05 20:11 50.31339 2.05380 35892 ft 447 kts 343°
2026-05-05 20:12 50.37119 2.01890 35897 ft 446 kts 329°
2026-05-05 20:12 50.42050 1.96038 35900 ft 445 kts 318°
2026-05-05 20:13 50.46725 1.89652 35894 ft 446 kts 318°
2026-05-05 20:13 50.51409 1.83263 35905 ft 446 kts 318°
2026-05-05 20:14 50.56085 1.76874 35926 ft 445 kts 318°
2026-05-05 20:14 50.60754 1.70464 35913 ft 445 kts 317°
2026-05-05 20:15 50.65414 1.64032 35917 ft 445 kts 317°
2026-05-05 20:15 50.70072 1.57591 35918 ft 446 kts 317°
2026-05-05 20:16 50.74735 1.51128 35923 ft 446 kts 317°
2026-05-05 20:16 50.79340 1.44727 35941 ft 445 kts 317°
2026-05-05 20:17 50.83987 1.38265 35930 ft 445 kts 317°
2026-05-05 20:17 50.88406 1.32096 35936 ft 445 kts 317°
2026-05-05 20:18 50.93034 1.25607 35952 ft 444 kts 317°
2026-05-05 20:18 50.97628 1.19152 35956 ft 443 kts 317°
2026-05-05 20:19 51.02234 1.12652 35953 ft 443 kts 317°
2026-05-05 20:19 51.06889 1.06242 35950 ft 443 kts 323°
2026-05-05 20:20 51.11960 1.00640 35949 ft 443 kts 324°
2026-05-05 20:20 51.17026 0.95039 35950 ft 443 kts 324°
2026-05-05 20:21 51.22085 0.89418 36014 ft 442 kts 324°
2026-05-05 20:21 51.27120 0.83804 36031 ft 441 kts 324°
2026-05-05 20:22 51.32154 0.78188 36034 ft 441 kts 324°
2026-05-05 20:22 51.37169 0.72581 35987 ft 440 kts 323°
2026-05-05 20:23 51.42169 0.66961 35987 ft 439 kts 323°
2026-05-05 20:23 51.47172 0.61341 35988 ft 438 kts 323°
2026-05-05 20:24 51.52155 0.55717 35987 ft 438 kts 323°
2026-05-05 20:24 51.57137 0.50078 35978 ft 438 kts 323°
2026-05-05 20:25 51.62109 0.44436 35989 ft 437 kts 323°
2026-05-05 20:25 51.67041 0.38816 35989 ft 436 kts 323°
2026-05-05 20:26 51.71992 0.33163 36005 ft 436 kts 323°
2026-05-05 20:26 51.76936 0.27511 36004 ft 436 kts 323°
2026-05-05 20:27 51.81881 0.21840 36015 ft 435 kts 322°
2026-05-05 20:27 51.86819 0.16166 36013 ft 435 kts 322°
2026-05-05 20:28 51.91746 0.10483 36003 ft 435 kts 322°
2026-05-05 20:28 51.96670 0.04780 35997 ft 435 kts 322°
2026-05-05 20:29 52.01594 -0.00935 35983 ft 435 kts 323°
2026-05-05 20:29 52.06862 -0.05818 35991 ft 436 kts 329°
2026-05-05 20:30 52.12211 -0.10486 35997 ft 436 kts 329°
2026-05-05 20:30 52.17545 -0.15164 35993 ft 435 kts 329°
2026-05-05 20:31 52.22832 -0.19822 35996 ft 435 kts 329°
2026-05-05 20:31 52.28156 -0.24528 35992 ft 435 kts 329°
2026-05-05 20:32 52.33467 -0.29228 36013 ft 434 kts 329°
2026-05-05 20:32 52.38768 -0.33932 36013 ft 433 kts 329°
2026-05-05 20:33 52.44059 -0.38644 36012 ft 432 kts 329°
2026-05-05 20:33 52.49344 -0.43371 36009 ft 432 kts 329°
2026-05-05 20:34 52.54629 -0.48094 36009 ft 432 kts 329°
2026-05-05 20:34 52.59913 -0.52815 36007 ft 432 kts 329°
2026-05-05 20:35 52.65187 -0.57560 36010 ft 432 kts 329°
2026-05-05 20:35 52.70459 -0.62322 36011 ft 432 kts 329°
2026-05-05 20:36 52.75694 -0.67063 36028 ft 432 kts 329°
2026-05-05 20:36 52.80967 -0.71839 36042 ft 432 kts 329°
2026-05-05 20:37 52.86223 -0.76633 36039 ft 431 kts 329°
2026-05-05 20:37 52.91483 -0.81446 36040 ft 431 kts 329°
2026-05-05 20:38 52.96734 -0.86251 36039 ft 431 kts 329°
2026-05-05 20:38 53.01981 -0.91057 36047 ft 431 kts 329°
2026-05-05 20:39 53.07221 -0.95871 36048 ft 430 kts 329°
2026-05-05 20:39 53.12462 -1.00695 36045 ft 430 kts 329°
2026-05-05 20:40 53.17690 -1.05528 36063 ft 429 kts 329°
2026-05-05 20:40 53.22899 -1.10355 36066 ft 428 kts 329°
2026-05-05 20:41 53.28100 -1.15195 36076 ft 427 kts 329°
2026-05-05 20:41 53.33290 -1.20037 36070 ft 427 kts 329°
2026-05-05 20:42 53.38474 -1.24883 36072 ft 427 kts 329°
2026-05-05 20:42 53.43617 -1.29700 36074 ft 426 kts 329°
2026-05-05 20:43 53.48790 -1.34567 36072 ft 426 kts 329°
2026-05-05 20:43 53.53959 -1.39454 36072 ft 426 kts 329°
2026-05-05 20:44 53.59127 -1.44349 36076 ft 426 kts 328°
2026-05-05 20:44 53.64285 -1.49250 36075 ft 426 kts 329°
2026-05-05 20:45 53.72019 -1.56634 36056 ft 425 kts 327°
2026-05-05 20:45 53.76607 -1.62810 36071 ft 421 kts 315°
2026-05-05 20:46 53.80948 -1.69482 36068 ft 421 kts 315°
2026-05-05 20:46 53.85264 -1.76105 36058 ft 421 kts 315°
2026-05-05 20:47 53.89621 -1.82828 36064 ft 421 kts 315°
2026-05-05 20:47 53.93919 -1.89480 36081 ft 420 kts 315°
2026-05-05 20:48 53.98237 -1.96180 36095 ft 420 kts 314°
2026-05-05 20:48 54.02690 -2.02629 36086 ft 423 kts 324°
2026-05-05 20:49 54.07763 -2.07753 36085 ft 424 kts 327°
2026-05-05 20:49 54.12857 -2.12851 36086 ft 424 kts 326°
2026-05-05 20:50 54.17083 -2.17104 36088 ft 424 kts 326°
2026-05-05 20:50 54.22160 -2.22230 36088 ft 424 kts 326°
2026-05-05 20:51 54.28093 -2.28229 36099 ft 423 kts 326°
2026-05-05 20:51 54.33158 -2.33365 36102 ft 423 kts 326°
2026-05-05 20:52 54.38188 -2.38491 36079 ft 424 kts 326°
2026-05-05 20:52 54.42449 -2.42845 36062 ft 426 kts 326°
2026-05-05 20:53 54.48392 -2.48916 36085 ft 428 kts 326°
2026-05-05 20:53 54.52654 -2.53284 36079 ft 429 kts 326°
2026-05-05 20:54 54.57783 -2.58570 36016 ft 430 kts 326°
2026-05-05 20:54 54.60371 -2.61239 35002 ft 439 kts 326°
2026-05-05 20:54 54.62991 -2.63943 34073 ft 438 kts 326°
2026-05-05 20:55 54.65592 -2.66632 33114 ft 433 kts 326°
2026-05-05 20:55 54.68161 -2.69289 32226 ft 427 kts 326°
2026-05-05 20:55 54.70689 -2.71906 31401 ft 420 kts 326°
2026-05-05 20:55 54.73175 -2.74485 30614 ft 413 kts 326°
2026-05-05 20:56 54.75624 -2.77026 29798 ft 407 kts 326°
2026-05-05 20:56 54.78038 -2.79539 28924 ft 401 kts 326°
2026-05-05 20:56 54.80409 -2.82015 28065 ft 396 kts 326°
2026-05-05 20:56 54.82749 -2.84463 27234 ft 390 kts 326°
2026-05-05 20:57 54.85058 -2.86876 26574 ft 382 kts 326°
2026-05-05 20:57 54.87305 -2.89189 26152 ft 370 kts 329°
2026-05-05 20:57 54.89618 -2.91019 25665 ft 362 kts 334°
2026-05-05 20:57 54.91933 -2.92689 25156 ft 357 kts 334°
2026-05-05 20:58 54.94209 -2.94337 24665 ft 353 kts 334°
2026-05-05 20:58 54.96441 -2.95958 24189 ft 352 kts 334°
2026-05-05 20:58 54.98703 -2.97599 23691 ft 353 kts 334°
2026-05-05 20:58 55.00964 -2.99240 23134 ft 352 kts 334°
2026-05-05 20:59 55.03220 -3.00882 22646 ft 349 kts 334°
2026-05-05 20:59 55.05460 -3.02513 22156 ft 348 kts 334°
2026-05-05 20:59 55.07689 -3.04135 21674 ft 346 kts 334°
2026-05-05 20:59 55.09903 -3.05753 21189 ft 345 kts 334°
2026-05-05 21:00 55.12113 -3.07370 20701 ft 343 kts 334°
2026-05-05 21:00 55.14312 -3.08977 20230 ft 342 kts 334°
2026-05-05 21:00 55.16506 -3.10578 19682 ft 343 kts 334°
2026-05-05 21:00 55.18713 -3.12199 19155 ft 344 kts 334°
2026-05-05 21:01 55.20912 -3.13813 18806 ft 340 kts 334°
2026-05-05 21:01 55.23087 -3.15413 18363 ft 338 kts 334°
2026-05-05 21:01 55.25251 -3.17006 17839 ft 336 kts 334°
2026-05-05 21:01 55.27402 -3.18586 17318 ft 334 kts 334°
2026-05-05 21:02 55.29582 -3.19796 16838 ft 334 kts 346°
2026-05-05 21:02 55.31889 -3.20083 16558 ft 328 kts 360°
2026-05-05 21:02 55.34121 -3.19752 16150 ft 318 kts
2026-05-05 21:02 55.36309 -3.19409 15592 ft 313 kts
2026-05-05 21:03 55.38473 -3.19074 15021 ft 310 kts
2026-05-05 21:03 55.40613 -3.18746 14460 ft 306 kts
2026-05-05 21:03 55.42726 -3.18423 13908 ft 303 kts
2026-05-05 21:03 55.44815 -3.18101 13288 ft 300 kts
2026-05-05 21:04 55.46862 -3.17783 12715 ft 297 kts
2026-05-05 21:04 55.48909 -3.17461 12144 ft 294 kts
2026-05-05 21:04 55.50929 -3.17137 11589 ft 289 kts
2026-05-05 21:04 55.52926 -3.16817 11006 ft 286 kts
2026-05-05 21:05 55.54899 -3.16503 10439 ft 283 kts
2026-05-05 21:05 55.56849 -3.16198 9864 ft 280 kts
2026-05-05 21:05 55.58775 -3.15900 9221 ft 277 kts
2026-05-05 21:05 55.60683 -3.15604 8614 ft 274 kts
2026-05-05 21:06 55.62572 -3.15306 7997 ft 271 kts
2026-05-05 21:06 55.64443 -3.15010 7422 ft 267 kts
2026-05-05 21:06 55.66206 -3.14791 7191 ft 249 kts 356°
2026-05-05 21:06 55.67831 -3.15510 6844 ft 236 kts 331°
2026-05-05 21:07 55.69102 -3.17300 6953 ft 238 kts 310°
2026-05-05 21:07 55.69905 -3.19872 6924 ft 242 kts 287°
2026-05-05 21:07 55.70039 -3.22839 6855 ft 246 kts 263°
2026-05-05 21:07 55.69581 -3.25775 6770 ft 247 kts 254°
2026-05-05 21:08 55.69051 -3.28676 6698 ft 248 kts 254°
2026-05-05 21:08 55.68520 -3.31580 6625 ft 248 kts 255°
2026-05-05 21:08 55.67991 -3.34479 6546 ft 247 kts 255°
2026-05-05 21:08 55.67464 -3.37377 6464 ft 245 kts 254°
2026-05-05 21:09 55.66943 -3.40244 6393 ft 244 kts 254°
2026-05-05 21:09 55.66420 -3.43102 6318 ft 244 kts 253°
2026-05-05 21:09 55.65893 -3.45959 6240 ft 245 kts 253°
2026-05-05 21:09 55.65364 -3.48835 6174 ft 245 kts 254°
2026-05-05 21:10 55.64866 -3.51706 6052 ft 241 kts 260°
2026-05-05 21:10 55.64822 -3.54533 5966 ft 222 kts 282°
2026-05-05 21:10 55.65280 -3.57022 5877 ft 212 kts 301°
2026-05-05 21:10 55.66157 -3.59075 5767 ft 209 kts 319°
2026-05-05 21:11 55.67250 -3.60805 5664 ft 212 kts 320°
2026-05-05 21:11 55.68337 -3.62554 5553 ft 211 kts 319°
2026-05-05 21:11 55.69432 -3.64308 5443 ft 212 kts 320°
2026-05-05 21:11 55.70565 -3.65999 5333 ft 213 kts 322°
2026-05-05 21:12 55.71718 -3.67671 5220 ft 213 kts 323°
2026-05-05 21:12 55.72866 -3.69327 5111 ft 213 kts 322°
2026-05-05 21:12 55.74019 -3.70988 5001 ft 213 kts 324°
2026-05-05 21:12 55.75168 -3.72650 4890 ft 213 kts 324°
2026-05-05 21:13 55.76278 -3.74409 4778 ft 215 kts 319°
2026-05-05 21:13 55.77340 -3.76278 4667 ft 215 kts 317°
2026-05-05 21:13 55.78523 -3.77830 4569 ft 210 kts 342°
2026-05-05 21:13 55.79925 -3.78124 4478 ft 206 kts 12°
2026-05-05 21:14 55.81205 -3.77113 4380 ft 202 kts 41°
2026-05-05 21:14 55.82063 -3.75169 4290 ft 201 kts 59°
2026-05-05 21:14 55.82798 -3.73014 4190 ft 201 kts 59°
2026-05-05 21:14 55.83516 -3.70908 4091 ft 201 kts 59°
2026-05-05 21:15 55.84233 -3.68787 3990 ft 200 kts 59°
2026-05-05 21:15 55.84945 -3.66661 3880 ft 200 kts 60°
2026-05-05 21:15 55.85666 -3.64502 3520 ft 204 kts 60°
2026-05-05 21:15 55.86393 -3.62322 3183 ft 204 kts 60°
2026-05-05 21:16 55.87088 -3.60283 3140 ft 180 kts 60°
2026-05-05 21:16 55.87724 -3.58483 2989 ft 162 kts 60°
2026-05-05 21:16 55.88276 -3.56924 2768 ft 141 kts 60°
2026-05-05 21:16 55.88785 -3.55472 2380 ft 136 kts 62°
2026-05-05 21:17 55.89262 -3.54089 2155 ft 127 kts 62°
2026-05-05 21:17 55.89715 -3.52772 2002 ft 123 kts 63°
2026-05-05 21:17 55.90168 -3.51472 1820 ft 124 kts 63°
2026-05-05 21:17 55.90608 -3.50164 1612 ft 122 kts 64°
2026-05-05 21:18 55.91054 -3.48873 1497 ft 122 kts 62°
2026-05-05 21:18 55.91500 -3.47589 1278 ft 122 kts 62°
2026-05-05 21:18 55.91940 -3.46301 1155 ft 123 kts 64°
2026-05-05 21:18 55.92372 -3.44981 962 ft 124 kts 63°
2026-05-05 21:19 55.92815 -3.43675 804 ft 123 kts 62°
2026-05-05 21:19 55.93255 -3.42374 650 ft 124 kts 63°
2026-05-05 21:19 55.93702 -3.41078 490 ft 123 kts 63°
2026-05-05 21:19 55.94138 -3.39795 287 ft 123 kts 62°
2026-05-05 21:20 55.94572 -3.38512 134 ft 122 kts 62°
2026-05-05 21:20 55.94954 -3.37372 111 ft 89 kts 59°
2026-05-05 21:20 55.95201 -3.36647 114 ft 51 kts 57°
2026-05-05 21:20 55.95224 -3.36387 114 ft 12 kts 146°
2026-05-05 21:21 55.95189 -3.36348 115 ft 6 kts 149°
2026-05-05 21:21 55.95162 -3.36319 116 ft 0 kts 149°
2026-05-05 21:22 55.95160 -3.36317 116 ft 1 kts 149°
2026-05-05 21:22 55.95144 -3.36308 115 ft 6 kts 168°
2026-05-05 21:22 55.95106 -3.36358 115 ft 8 kts 240°
2026-05-05 21:22 55.95068 -3.36479 115 ft 16 kts 240°
2026-05-05 21:23 55.95007 -3.36659 116 ft 18 kts 238°
2026-05-05 21:23 55.94935 -3.36827 116 ft 17 kts 195°
2026-05-05 21:23 55.94828 -3.36778 116 ft 17 kts 183°
2026-05-05 21:23 55.94745 -3.36739 113 ft 10 kts 159°
2026-05-05 21:24 55.94700 -3.36706 116 ft 6 kts 105°
2026-05-05 21:24 55.94702 -3.36626 116 ft 7 kts 89°
2026-05-05 21:24 55.94702 -3.36605 116 ft 0 kts 89°
2026-05-05 21:24 55.94702 -3.36603 116 ft 0 kts 89°